PGT2DK LTFJ-LTBJ

Flight info

Callsign PGT2DK
Flight time 0h 43m
Altitude 26000
Route IVGUS1J/06L IVGUS M19 OVZOK
Aircraft A21N/M-SDE2E3FGHIRWXY/LB1

Departure

Time 2026-04-30 10:31
Airport Istanbul Sabiha Gökçen International Airport (LTFJ)

Arrival

Time 2026-04-30 11:15
Airport Adnan Menderes International Airport (LTBJ)
Time Latitude Longitude Altitude Speed Heading
2026-04-30 10:02 40.90634 29.31738 324 ft 0 kts 334°
2026-04-30 10:17 40.90617 29.31750 322 ft 2 kts 329°
2026-04-30 10:17 40.90592 29.31777 321 ft 2 kts 307°
2026-04-30 10:17 40.90585 29.31796 324 ft 2 kts 274°
2026-04-30 10:18 40.90587 29.31817 323 ft 2 kts 247°
2026-04-30 10:18 40.90589 29.31823 323 ft 0 kts 244°
2026-04-30 10:23 40.90588 29.31820 323 ft 2 kts 244°
2026-04-30 10:23 40.90570 29.31771 321 ft 10 kts 244°
2026-04-30 10:23 40.90528 29.31657 321 ft 16 kts 244°
2026-04-30 10:24 40.90479 29.31524 323 ft 16 kts 244°
2026-04-30 10:24 40.90430 29.31436 322 ft 9 kts 189°
2026-04-30 10:24 40.90367 29.31467 324 ft 10 kts 154°
2026-04-30 10:24 40.90301 29.31504 324 ft 10 kts 177°
2026-04-30 10:25 40.90256 29.31440 324 ft 10 kts 244°
2026-04-30 10:25 40.90219 29.31340 322 ft 16 kts 244°
2026-04-30 10:25 40.90160 29.31180 321 ft 22 kts 243°
2026-04-30 10:25 40.90093 29.30998 323 ft 22 kts 244°
2026-04-30 10:26 40.90024 29.30810 323 ft 23 kts 244°
2026-04-30 10:26 40.89954 29.30620 322 ft 23 kts 244°
2026-04-30 10:26 40.89883 29.30427 322 ft 23 kts 244°
2026-04-30 10:26 40.89811 29.30231 322 ft 24 kts 244°
2026-04-30 10:27 40.89738 29.30031 322 ft 24 kts 244°
2026-04-30 10:27 40.89663 29.29829 321 ft 25 kts 244°
2026-04-30 10:27 40.89587 29.29622 322 ft 25 kts 244°
2026-04-30 10:27 40.89509 29.29411 322 ft 26 kts 244°
2026-04-30 10:28 40.89436 29.29261 323 ft 13 kts 207°
2026-04-30 10:28 40.89355 29.29279 322 ft 8 kts 154°
2026-04-30 10:28 40.89346 29.29285 321 ft 0 kts 154°
2026-04-30 10:29 40.89318 29.29304 320 ft 10 kts 152°
2026-04-30 10:29 40.89288 29.29385 319 ft 11 kts 65°
2026-04-30 10:29 40.89305 29.29430 319 ft 0 kts 64°
2026-04-30 10:30 40.89305 29.29431 319 ft 0 kts 64°
2026-04-30 10:30 40.89346 29.29542 320 ft 36 kts 64°
2026-04-30 10:31 40.89549 29.30090 322 ft 99 kts 64°
2026-04-30 10:31 40.89959 29.31201 324 ft 162 kts 63°
2026-04-30 10:31 40.90457 29.32613 741 ft 170 kts 62°
2026-04-30 10:31 40.90960 29.34012 1510 ft 166 kts 61°
2026-04-30 10:32 40.91467 29.35371 2259 ft 172 kts 62°
2026-04-30 10:32 40.92050 29.36917 2616 ft 204 kts 63°
2026-04-30 10:32 40.92711 29.38691 2977 ft 235 kts 64°
2026-04-30 10:32 40.93444 29.40791 3595 ft 257 kts 73°
2026-04-30 10:33 40.93504 29.43167 4406 ft 265 kts 109°
2026-04-30 10:33 40.92537 29.45189 5277 ft 268 kts 143°
2026-04-30 10:33 40.90883 29.46387 6242 ft 270 kts 158°
2026-04-30 10:33 40.89095 29.47137 7191 ft 272 kts 175°
2026-04-30 10:34 40.87223 29.46985 8140 ft 271 kts 201°
2026-04-30 10:34 40.85606 29.45760 9113 ft 269 kts 222°
2026-04-30 10:34 40.84270 29.44029 10103 ft 270 kts 232°
2026-04-30 10:34 40.83058 29.41990 10652 ft 289 kts 236°
2026-04-30 10:35 40.81898 29.39778 10990 ft 312 kts 238°
2026-04-30 10:35 40.80643 29.37311 11321 ft 335 kts 237°
2026-04-30 10:35 40.79289 29.34706 11872 ft 349 kts 237°
2026-04-30 10:35 40.77870 29.32063 12671 ft 356 kts 236°
2026-04-30 10:36 40.76383 29.29370 13525 ft 360 kts 235°
2026-04-30 10:36 40.74877 29.26692 14309 ft 365 kts 235°
2026-04-30 10:36 40.73353 29.24005 15107 ft 367 kts 235°
2026-04-30 10:36 40.71834 29.21341 15856 ft 370 kts 235°
2026-04-30 10:37 40.70279 29.18611 16587 ft 374 kts 235°
2026-04-30 10:37 40.68712 29.15862 17339 ft 377 kts 235°
2026-04-30 10:37 40.67136 29.13094 18072 ft 380 kts 235°
2026-04-30 10:37 40.65521 29.10257 18746 ft 383 kts 235°
2026-04-30 10:38 40.63913 29.07435 19342 ft 386 kts 236°
2026-04-30 10:38 40.62274 29.04558 19918 ft 390 kts 236°
2026-04-30 10:38 40.60656 29.01724 20485 ft 393 kts 235°
2026-04-30 10:38 40.58984 28.98796 21053 ft 397 kts 236°
2026-04-30 10:39 40.57317 28.95878 21587 ft 400 kts 236°
2026-04-30 10:39 40.55638 28.92940 22201 ft 403 kts 236°
2026-04-30 10:39 40.53972 28.90027 22773 ft 406 kts 236°
2026-04-30 10:39 40.52269 28.87057 23351 ft 409 kts 236°
2026-04-30 10:40 40.50548 28.84059 23862 ft 412 kts 236°
2026-04-30 10:40 40.48814 28.81040 24313 ft 415 kts 236°
2026-04-30 10:40 40.47069 28.78006 24759 ft 418 kts 236°
2026-04-30 10:40 40.45322 28.74971 25340 ft 416 kts 236°
2026-04-30 10:41 40.43581 28.71951 25861 ft 414 kts 236°
2026-04-30 10:41 40.41846 28.68943 26076 ft 411 kts 236°
2026-04-30 10:41 40.40127 28.65968 26118 ft 408 kts 236°
2026-04-30 10:41 40.38403 28.62983 26105 ft 412 kts 236°
2026-04-30 10:42 40.36669 28.59980 26104 ft 414 kts 236°
2026-04-30 10:42 40.34926 28.56966 26104 ft 414 kts 236°
2026-04-30 10:42 40.33180 28.53951 26086 ft 414 kts 236°
2026-04-30 10:42 40.31433 28.50938 26107 ft 416 kts 236°
2026-04-30 10:43 40.29682 28.47921 26103 ft 416 kts 236°
2026-04-30 10:43 40.27929 28.44903 26103 ft 416 kts 235°
2026-04-30 10:43 40.26172 28.41883 26104 ft 416 kts 235°
2026-04-30 10:43 40.24415 28.38866 26098 ft 416 kts 235°
2026-04-30 10:44 40.22658 28.35851 26109 ft 416 kts 236°
2026-04-30 10:44 40.20901 28.32840 26102 ft 416 kts 235°
2026-04-30 10:44 40.19145 28.29832 26095 ft 416 kts 235°
2026-04-30 10:44 40.17382 28.26815 26098 ft 417 kts 235°
2026-04-30 10:45 40.15641 28.23838 26100 ft 417 kts 235°
2026-04-30 10:45 40.13878 28.20826 26098 ft 417 kts 235°
2026-04-30 10:45 40.12111 28.17810 26101 ft 417 kts 235°
2026-04-30 10:45 40.10344 28.14799 26098 ft 417 kts 235°
2026-04-30 10:46 40.08578 28.11791 26092 ft 417 kts 235°
2026-04-30 10:46 40.07384 28.09760 26093 ft 417 kts 235°
2026-04-30 10:46 40.05613 28.06747 26097 ft 418 kts 235°
2026-04-30 10:46 40.03840 28.03736 26095 ft 418 kts 235°
2026-04-30 10:47 40.02064 28.00723 26092 ft 418 kts 235°
2026-04-30 10:47 40.00291 27.97716 26096 ft 419 kts 235°
2026-04-30 10:47 39.98498 27.94680 26093 ft 418 kts 235°
2026-04-30 10:47 39.96725 27.91680 26089 ft 419 kts 235°
2026-04-30 10:48 39.94947 27.88674 26089 ft 418 kts 235°
2026-04-30 10:48 39.93191 27.85707 26086 ft 419 kts 235°
2026-04-30 10:48 39.91385 27.82660 26084 ft 419 kts 235°
2026-04-30 10:48 39.89604 27.79656 26079 ft 420 kts 235°
2026-04-30 10:49 39.87817 27.76647 26082 ft 420 kts 235°
2026-04-30 10:49 39.86054 27.73680 26079 ft 420 kts 235°
2026-04-30 10:49 39.84239 27.70631 26073 ft 420 kts 235°
2026-04-30 10:49 39.82449 27.67624 26077 ft 420 kts 235°
2026-04-30 10:50 39.80663 27.64628 26074 ft 420 kts 235°
2026-04-30 10:50 39.78869 27.61621 26055 ft 420 kts 234°
2026-04-30 10:50 39.77097 27.58654 26079 ft 421 kts 234°
2026-04-30 10:50 39.75303 27.55652 26076 ft 421 kts 234°
2026-04-30 10:51 39.73513 27.52661 26062 ft 417 kts 234°
2026-04-30 10:51 39.71727 27.49702 26071 ft 415 kts 232°
2026-04-30 10:51 39.69549 27.47220 26083 ft 421 kts 214°
2026-04-30 10:51 39.66830 27.45738 26062 ft 430 kts 197°
2026-04-30 10:52 39.63834 27.45338 26069 ft 437 kts 185°
2026-04-30 10:52 39.60778 27.45303 26063 ft 438 kts 185°
2026-04-30 10:52 39.57723 27.45133 26062 ft 438 kts 188°
2026-04-30 10:52 39.54686 27.44807 26064 ft 437 kts 189°
2026-04-30 10:53 39.51694 27.44383 26064 ft 437 kts 191°
2026-04-30 10:53 39.48680 27.43895 26061 ft 436 kts 191°
2026-04-30 10:53 39.45676 27.43374 26055 ft 436 kts 192°
2026-04-30 10:53 39.42670 27.42835 26054 ft 436 kts 192°
2026-04-30 10:54 39.39668 27.42286 26048 ft 436 kts 192°
2026-04-30 10:54 39.36687 27.41626 26039 ft 432 kts 199°
2026-04-30 10:54 39.33785 27.40571 26053 ft 431 kts 200°
2026-04-30 10:54 39.30910 27.39483 26011 ft 431 kts 200°
2026-04-30 10:55 39.28035 27.38386 25705 ft 430 kts 200°
2026-04-30 10:55 39.25165 27.37299 25221 ft 429 kts 200°
2026-04-30 10:55 39.22295 27.36219 24721 ft 427 kts 200°
2026-04-30 10:55 39.19450 27.35152 24250 ft 425 kts 200°
2026-04-30 10:56 39.16620 27.34094 23794 ft 422 kts 200°
2026-04-30 10:56 39.13807 27.33044 23270 ft 419 kts 200°
2026-04-30 10:56 39.11014 27.32003 22731 ft 416 kts 200°
2026-04-30 10:56 39.08274 27.30983 22195 ft 413 kts 200°
2026-04-30 10:57 39.05527 27.29961 21665 ft 409 kts 200°
2026-04-30 10:57 39.02787 27.28943 21151 ft 406 kts 200°
2026-04-30 10:57 39.00083 27.27938 20642 ft 402 kts 200°
2026-04-30 10:57 38.97405 27.26945 20150 ft 399 kts 200°
2026-04-30 10:58 38.94749 27.25962 19660 ft 396 kts 200°
2026-04-30 10:58 38.92109 27.24983 19178 ft 393 kts 200°
2026-04-30 10:58 38.89484 27.24010 18706 ft 390 kts 200°
2026-04-30 10:58 38.86887 27.23052 18205 ft 389 kts 195°
2026-04-30 10:59 38.84208 27.22878 17688 ft 392 kts 182°
2026-04-30 10:59 38.81492 27.23018 17153 ft 390 kts 181°
2026-04-30 10:59 38.78786 27.23162 16649 ft 387 kts 181°
2026-04-30 10:59 38.76108 27.23266 16130 ft 383 kts 182°
2026-04-30 11:00 38.73458 27.23337 15633 ft 377 kts 182°
2026-04-30 11:00 38.70878 27.23387 15135 ft 364 kts 182°
2026-04-30 11:00 38.68383 27.23451 14657 ft 351 kts 181°
2026-04-30 11:00 38.66024 27.23122 14182 ft 334 kts 199°
2026-04-30 11:01 38.63826 27.22276 13704 ft 324 kts 199°
2026-04-30 11:01 38.61698 27.21440 13184 ft 316 kts 199°
2026-04-30 11:01 38.59632 27.20642 12656 ft 309 kts 198°
2026-04-30 11:01 38.57586 27.19876 12161 ft 303 kts 198°
2026-04-30 11:02 38.55578 27.19131 11657 ft 298 kts 197°
2026-04-30 11:02 38.53539 27.18920 11161 ft 296 kts 172°
2026-04-30 11:02 38.51540 27.19540 10803 ft 296 kts 166°
2026-04-30 11:02 38.49564 27.20257 10440 ft 295 kts 166°
2026-04-30 11:03 38.47590 27.20944 10075 ft 293 kts 167°
2026-04-30 11:03 38.45619 27.21593 9695 ft 291 kts 167°
2026-04-30 11:03 38.43657 27.22214 9303 ft 290 kts 168°
2026-04-30 11:04 38.39754 27.23412 8975 ft 288 kts 168°
2026-04-30 11:04 38.37797 27.24003 8972 ft 288 kts 168°
2026-04-30 11:04 38.35849 27.24590 8966 ft 288 kts 168°
2026-04-30 11:04 38.33892 27.25176 8971 ft 288 kts 168°
2026-04-30 11:05 38.31939 27.25762 8971 ft 288 kts 168°
2026-04-30 11:05 38.30013 27.26340 8969 ft 288 kts 168°
2026-04-30 11:05 38.28061 27.26925 8887 ft 288 kts 168°
2026-04-30 11:05 38.26130 27.27504 8589 ft 281 kts 168°
2026-04-30 11:06 38.24249 27.28069 8287 ft 275 kts 168°
2026-04-30 11:06 38.22405 27.28621 7981 ft 269 kts 168°
2026-04-30 11:06 38.20604 27.29161 7702 ft 262 kts 168°
2026-04-30 11:06 38.18849 27.29686 7392 ft 258 kts 168°
2026-04-30 11:07 38.17093 27.30208 7031 ft 259 kts 168°
2026-04-30 11:07 38.15333 27.30734 6680 ft 259 kts 168°
2026-04-30 11:07 38.13585 27.31252 6314 ft 258 kts 168°
2026-04-30 11:07 38.11841 27.31767 5937 ft 257 kts 167°
2026-04-30 11:08 38.10106 27.32284 5558 ft 256 kts 167°
2026-04-30 11:08 38.08351 27.32516 5171 ft 253 kts 191°
2026-04-30 11:08 38.06819 27.31548 4701 ft 246 kts 227°
2026-04-30 11:08 38.06087 27.29675 4188 ft 235 kts 264°
2026-04-30 11:09 38.06034 27.27684 3894 ft 220 kts 270°
2026-04-30 11:09 38.05987 27.25795 3726 ft 211 kts 267°
2026-04-30 11:09 38.05981 27.23927 3849 ft 212 kts 281°
2026-04-30 11:09 38.06683 27.22349 3881 ft 209 kts 321°
2026-04-30 11:10 38.07998 27.21624 3870 ft 202 kts 345°
2026-04-30 11:10 38.09290 27.21275 3866 ft 177 kts 348°
2026-04-30 11:10 38.10446 27.20995 3826 ft 161 kts 349°
2026-04-30 11:10 38.11513 27.20727 3659 ft 157 kts 347°
2026-04-30 11:11 38.12571 27.20445 3455 ft 155 kts 347°
2026-04-30 11:11 38.13626 27.20148 3193 ft 155 kts 347°
2026-04-30 11:11 38.14681 27.19842 2991 ft 156 kts 346°
2026-04-30 11:11 38.15741 27.19530 2781 ft 157 kts 346°
2026-04-30 11:12 38.16806 27.19213 2580 ft 157 kts 346°
2026-04-30 11:12 38.17868 27.18899 2367 ft 157 kts 346°
2026-04-30 11:12 38.18937 27.18579 2176 ft 157 kts 346°
2026-04-30 11:12 38.20002 27.18260 1974 ft 157 kts 345°
2026-04-30 11:13 38.21064 27.17940 1765 ft 156 kts 345°
2026-04-30 11:13 38.22148 27.17614 1537 ft 156 kts 345°
2026-04-30 11:13 38.23154 27.17311 1377 ft 141 kts 346°
2026-04-30 11:13 38.24066 27.17038 1193 ft 131 kts 346°
2026-04-30 11:14 38.24942 27.16775 1010 ft 128 kts 347°
2026-04-30 11:14 38.25800 27.16516 816 ft 126 kts 348°
2026-04-30 11:14 38.26654 27.16268 668 ft 126 kts 347°
2026-04-30 11:14 38.27506 27.16002 505 ft 125 kts 347°
2026-04-30 11:15 38.28342 27.15753 419 ft 110 kts 346°
2026-04-30 11:15 38.28806 27.15613 414 ft 25 kts 346°
2026-04-30 11:15 38.28910 27.15581 412 ft 17 kts 346°
2026-04-30 11:15 38.29027 27.15544 420 ft 14 kts 341°
2026-04-30 11:16 38.29048 27.15459 417 ft 11 kts 260°
2026-04-30 11:16 38.29031 27.15356 414 ft 13 kts 257°
2026-04-30 11:16 38.29011 27.15238 420 ft 14 kts 263°
2026-04-30 11:16 38.28994 27.15131 416 ft 9 kts 256°
2026-04-30 11:17 38.28990 27.15114 419 ft 0 kts 256°